• Join FlightAware (Why Join?)
  • Login
  • US Flag 
06:59PM EST


 

Airport Tracker/Info


-or-


 

Live Flight TrackerFlight Track Log ✈ RPA3161 ✈ 23-Jun-2013 ✈ KBTV - KDCA

Flight Track Log - Related Links

Times and Time Zones

All times are in EDT time to prevent confusion due to time zone crossing. See the RPA3161 flight status page for this flight to view local times or setup timezone preferences in your user account.

Time Position Orientation Groundspeed Altitude Reporting Facility
EDT Latitude Longitude Course Direction KTS MPH feet Rate Location/Type
01:03PM 44.4156 -73.1375 195° South 205 236 3,100  Level Boston Center
01:04PM 44.3486 -73.1572 192° South 241 277 5,700 2,800 Climbing Boston Center
01:05PM 44.2756 -73.1764 191° South 265 305 8,700 2,750 Climbing Boston Center
01:06PM 44.2006 -73.2075 197° South 277 319 11,200 2,200 Climbing Boston Center
01:07PM 44.1314 -73.2356 196° South 307 353 13,100 2,400 Climbing Boston Center
01:08PM 43.7690 -73.4055 195° South  Level FlightAware Approximate
01:08PM 44.0269 -73.2803 197° South 324 373 16,000  Level Boston Center
01:09PM 43.9328 -73.3194 197° South 346 398 18,100 2,050 Climbing Boston Center
01:10PM 43.8408 -73.3611 198° South 346 398 20,100 2,050 Climbing Boston Center
01:11PM 43.7428 -73.4000 196° South 357 411 22,200 1,850 Climbing Boston Center
01:12PM 43.6403 -73.4383 195° South 369 425 23,800 1,450 Climbing Boston Center
01:13PM 43.5378 -73.4825 197° South 381 438 25,100 1,100 Climbing Boston Center
01:14PM 43.4289 -73.5264 196° South 395 455 26,000 450 Climbing Boston Center
01:15PM 43.3181 -73.5731 197° South 409 471 26,000  Level Boston Center
01:16PM 43.2050 -73.6164 196° South 414 476 26,000  Level Boston Center
01:17PM 43.0919 -73.6656 198° South 422 486 26,000  Level Boston Center
01:18PM 42.9831 -73.7086 196° South 422 486 26,000  Level Boston Center
01:19PM 42.8722 -73.7547 197° South 422 486 26,000  Level Boston Center
01:20PM 42.7342 -73.8025 194° South 421 484 26,000  Level Boston Center
01:21PM 42.6153 -73.7886 175° South 426 490 26,000  Level Boston Center
01:22PM 42.5136 -73.7722 173° South 420 483 26,000  Level Boston Center
01:23PM 42.3950 -73.7531 173° South 426 490 26,000  Level Boston Center
01:24PM 42.2533 -73.7303 173° South 426 490 26,000  Level Boston Center
01:25PM 42.1347 -73.7139 174° South 426 490 26,000  Level Boston Center
01:26PM 42.0161 -73.6947 173° South 426 490 26,000  Level Boston Center
01:27PM 41.9100 -73.6786 174° South 431 496 26,000  Level Boston Center
01:28PM 41.7664 -73.6592 174° South 431 496 26,000  Level Boston Center
01:29PM 41.6519 -73.6403 173° South 425 489 26,000  Level Boston Center
01:31PM 41.4047 -73.6008 173° South 423 487 26,000  Level New York Center
01:32PM 41.2919 -73.6125 184° South 406 467 26,000  Level New York Center
01:33PM 41.2061 -73.7108 221° Southwest 386 444 26,000  Level New York Center
01:34PM 41.1386 -73.8292 233° Southwest 384 442 26,000  Level New York Center
01:35PM 41.0689 -73.9444 231° Southwest 396 456 26,000  Level New York Center
01:36PM 40.9969 -74.0619 231° Southwest 407 468 26,000  Level New York Center
01:37PM 40.9314 -74.1769 233° Southwest 407 468 26,000  Level New York Center
01:38PM 40.8658 -74.2778 229° Southwest 412 474 26,000  Level New York Center
01:39PM 40.7956 -74.3919 231° Southwest 412 474 26,000  Level New York Center
01:40PM 40.7275 -74.5061 232° Southwest 412 474 26,000 -298 Level New York Center
01:41PM 40.6572 -74.6172 230° Southwest 407 468 25,400 -843 Descending New York Center
01:42PM 40.5889 -74.7308 232° Southwest 407 468 24,300 -1,041 Descending New York Center
01:43PM 40.5167 -74.8358 228° Southwest 402 463 23,300 -1,033 Descending New York Center
01:44PM 40.4442 -74.9408 228° Southwest 396 456 22,200 -661 Descending New York Center
01:45PM 40.3717 -75.0425 227° Southwest 396 456 22,000 -102 Descending New York Center
01:46PM 40.2969 -75.1469 227° Southwest 396 456 22,000  Level New York Center
01:47PM 40.2244 -75.2483 227° Southwest 391 450 22,000  Level New York Center
01:48PM 40.1539 -75.3497 228° Southwest 386 444 22,000  Level New York Center
01:49PM 40.0811 -75.4508 227° Southwest 386 444 22,000  Level New York Center
01:50PM 40.0106 -75.5489 227° Southwest 386 444 22,000  Level New York Center
01:51PM 39.9414 -75.6553 230° Southwest 386 444 22,000  Level New York Center
01:52PM 39.8747 -75.7589 230° Southwest 386 444 22,000 -545 Level New York Center
01:53PM 39.8078 -75.8622 230° Southwest 386 444 20,900 -1,131 Descending New York Center
01:54PM 39.7447 -75.9683 232° Southwest 386 444 19,700 -1,438 Descending New York Center
01:55PM 39.6778 -76.0631 227° Southwest 376 433 18,000 -1,729 Descending New York Center
01:56PM 39.6150 -76.1636 231° Southwest 365 420 16,300 -1,790 Descending New York Center
01:57PM 39.5500 -76.2833 235° Southwest 332 382 14,300 -1,667 Descending Potomac TRACON
01:58PM 39.4833 -76.3667 224° Southwest 327 376 12,800 -1,150 Descending Potomac TRACON
01:59PM 39.4167 -76.4500 224° Southwest 323 372 12,000 -421 Descending Potomac TRACON
02:00PM 39.3500 -76.5000 210° Southwest 326 375 12,000 -111 Level Potomac TRACON
02:01PM 39.2833 -76.5667 218° Southwest 295 339 11,800 -684 Descending Potomac TRACON
02:02PM 39.2167 -76.6167 210° Southwest 292 336 10,700 -857 Descending Potomac TRACON
02:03PM 39.1500 -76.6833 218° Southwest 283 326 10,000 -350 Descending Potomac TRACON
02:04PM 39.1000 -76.7500 226° Southwest 284 327 10,000 -220 Level Potomac TRACON
02:05PM 39.0500 -76.8167 226° Southwest 281 323 9,600 -1,148 Descending Potomac TRACON
02:06PM 38.9833 -76.8833 218° Southwest 279 321 7,800 -1,200 Descending Potomac TRACON
02:07PM 38.9333 -76.9333 218° Southwest 239 275 7,200 -900 Descending Potomac TRACON
02:08PM 38.8667 -76.9500 191° South 236 272 6,000 -1,200 Descending Potomac TRACON